Content
SEND FEEDBACK

Daily
Averages
Monthly
Summary
Mexico

CANCUN, QUINTANA ROO


Home > North America > Mexico > Quintana Roo
Elevation: 9 meters     Latitude: 21 09N     Longitude: 086 49W

WEATHER
 
SELECT A DAY
Number of Records: 163,931;   Date Range: 1/1/95 - 8/31/14
 
SHARE

PRINT THIS DATA

[ ← Previous Day ]
WEATHER ALMANAC - 9 FEBRUARY, 2013
[ Next Day → ]
[ °F ]   °C
Weather ElementAverageHighLow
Temperature24.1 °C28 °C (10:46 am)18 °C (5:43 am)
Dewpoint20.3 °C22 °C (7:43 am)18 °C (3:45 am)
Humidity80.7 %100 % (1:44 am)62 % (10:46 am)
Barometer1017.6 hPa1019.3 hPa (9:45 am)1015.9 hPa (2:46 am)
Wind Speed8.9 km/h20.4 km/h (2:46 pm)
Weather ElementAverage
Visibility11.7 km
Wind DirectionENE (79.1 °)

Weather ElementTotal
Precipitation---
Cooling Degree Days4.7 (Base 18.3)
Growing Degree Days13 (Base 10)
Averaged from 23 records on 9 February, 2013
WEATHER CONDITIONS BREAKOUT
WIND DIRECTION BREAKOUT
WEATHER BY HOUR - 9 FEBRUARY, 2013
[ °F ]   °C
Local TimeTemperatureDewpointHumidityBarometerVisibilityWind DirectionWind SpeedGust SpeedPrecipitationEventsConditions
1:44 AM20 °C20 °C100 %1016.6 hPa12.9 kmESE (120°)9.3 km/hScattered Clouds
2:46 AM19 °C19 °C100 %1015.9 hPa12.9 kmCalmScattered Clouds
3:45 AM19 °C18 °C94 %1016.9 hPa12.9 kmCalmScattered Clouds
4:44 AM19 °C18 °C94 %1017.3 hPa12.9 kmCalmScattered Clouds
5:43 AM18 °C18 °C100 %1016.6 hPa12.9 kmCalmPartly Cloudy
6:42 AM18 °C18 °C100 %1017.9 hPa12.9 kmCalmPartly Cloudy
7:43 AM23 °C22 °C94 %1018.3 hPa11.3 kmCalmPartly Cloudy
8:44 AM27 °C21 °C70 %1019 hPa11.3 kmNE (50°)11.1 km/hMostly Cloudy
9:45 AM27 °C20 °C65 %1019.3 hPa11.3 kmNE (50°)9.3 km/hScattered Clouds
10:46 AM28 °C20 °C62 %1019 hPa11.3 kmEast (80°)13 km/hPartly Cloudy
11:44 AM28 °C20 °C62 %1018.3 hPa11.3 kmESE (110°)14.8 km/hPartly Cloudy
12:44 PM28 °C21 °C66 %1017.6 hPa11.3 kmEast (80°)16.7 km/hScattered Clouds
1:43 PM28 °C21 °C66 %1016.9 hPa11.3 kmESE (120°)13 km/hMostly Cloudy
2:46 PM27 °C21 °C70 %1016.9 hPa11.3 kmSE (130°)20.4 km/hScattered Clouds
3:40 PM27 °C21 °C70 %1016.6 hPa11.3 kmSE (130°)18.5 km/hMostly Cloudy
4:43 PM27 °C21 °C70 %1016.9 hPa11.3 kmSE (140°)13 km/hScattered Clouds
5:41 PM25 °C21 °C78 %1016.9 hPa11.3 kmESE (120°)11.1 km/hScattered Clouds
6:44 PM25 °C21 °C78 %1017.3 hPa11.3 kmESE (120°)7.4 km/hScattered Clouds
7:47 PM24 °C21 °C83 %1017.9 hPa11.3 kmESE (120°)9.3 km/hScattered Clouds
8:44 PM24 °C21 °C83 %1017.9 hPa11.3 kmESE (120°)7.4 km/hScattered Clouds
9:46 PM25 °C21 °C78 %1017.9 hPa11.3 kmESE (110°)11.1 km/hScattered Clouds
10:46 PM24 °C21 °C83 %1017.9 hPa11.3 kmESE (110°)9.3 km/hScattered Clouds
11:46 PM24 °C22 °C89 %1017.6 hPa11.3 kmESE (110°)9.3 km/hScattered Clouds
Hourly data recorded from MMUN, located 0 kilometers away from Cancun, Quintana Roo







STORIES FROM OUR PARTNERS